Location: Unspecified
(45.7810°N, 0.0000°E)
Time: 16:35:24
(UTC+00:00)

ISS - Pass Details

Date: 30 July 2019
Orbit: 410 x 421 km, 51.6° (Epoch: 22 August)

Event Time Altitude Azimuth Distance (km) Brightness Sun altitude
Rises 22:13:19 0° 294° (WNW) 2,372 0.9 -20.9°
Reaches altitude 10° 22:15:31 10° 286° (WNW) 1,502 -0.4 -21.1°
Enters shadow 22:17:43 29° 254° (WSW) 792 -2.3 -21.2°
